Location: Julian California
(33.0790°N, 116.6010°W)
Time: 08:42:45
(UTC-08:00)

NOSS 3-4 (A) - Pass Details

Date: 19 May 2017
Orbit: 954 x 1258 km, 63.4° (Epoch: 19 November)

Event Time Altitude Azimuth Distance (km) Brightness Sun altitude
Rises 20:00:56 0° 199° (SSW) 3,624 6.4 -4.4°
Reaches altitude 10° 20:03:29 10° 196° (SSW) 2,671 5.7 -4.8°
Maximum altitude 20:09:36 64° 117° (ESE) 1,050 3.5 -6.0°
Drops below altitude 10° 20:15:51 10° 37° (NE) 2,730 5.8 -7.1°
Sets 20:18:29 0° 34° (NE) 3,711 6.5 -7.6°
